Wind_Speed
16 15 15 15 14 14 16 17 17 16 16 17 16 16 16 15 15 15 16 16 16 15 15 15 15 15 15 15 15 15 14 15 15 15 15 15 16 17 18 18 20 20 20 21 19 18 17 18 19 18 18 18 19 19 19 20 20 20 20 20 20 19 19 19 19 18 17 16 15 15 15 15 15 15 15 15 15 15 14 14 13 13 14 13 12
18 16 16 16 14 15 16 17 16 15 15 15 15 14 14 14 14 14 14 15 15 14 15 15 14 14 14 15 15 14 14 14 15 15 15 16 16 17 18 18 19 19 19 20 18 17 18 18 18 18 18 18 19 19 19 20 20 19 19 19 19 18 18 18 18 18 16 14 14 13 14 14 14 14 15 15 15 14 14 13 13 13 13 12 11
19 17 16 16 15 16 17 17 16 15 14 14 14 13 12 11 11 12 13 14 14 14 14 14 14 13 13 13 14 14 14 13 14 16 16 16 17 17 17 17 18 18 19 19 18 17 18 18 18 18 18 18 18 18 19 19 19 18 19 19 18 17 16 17 17 17 15 13 12 12 13 14 14 14 14 14 14 14 13 12 12 12 12 11 10
18 17 16 15 15 16 17 16 15 14 13 13 12 12 11 11 11 11 12 13 14 14 14 13 13 13 13 13 13 13 13 13 14 15 16 17 17 17 17 16 17 17 18 18 17 17 18 18 18 18 18 18 18 19 18 18 17 17 17 17 17 17 16 16 16 16 15 13 12 12 13 14 14 14 14 14 14 13 12 12 12 11 10 9 8
17 16 15 14 15 16 16 15 14 13 13 13 13 13 12 12 12 12 12 13 13 13 13 13 12 13 13 13 12 13 13 13 14 15 15 17 17 17 16 16 16 16 17 18 17 17 17 18 18 18 17 17 18 18 18 17 17 17 16 16 16 17 17 17 15 15 14 12 12 13 13 13 14 13 13 13 13 13 12 12 12 11 11 9 8
17 16 15 14 15 15 15 14 14 13 13 13 13 13 12 12 11 11 12 12 12 13 13 12 12 12 12 12 12 12 13 13 14 15 15 16 17 17 16 15 15 16 18 18 18 17 17 18 18 18 17 17 17 18 18 17 17 17 16 16 16 17 17 17 15 14 13 12 12 12 12 12 12 12 12 13 13 12 12 12 11 12 11 10 9
17 16 15 14 14 14 14 13 13 12 12 12 11 12 12 11 11 11 11 11 12 12 12 11 12 12 12 12 12 11 12 13 14 14 15 16 17 17 15 14 16 18 19 18 18 17 17 17 18 17 17 17 17 17 17 16 16 16 16 16 17 16 16 15 13 12 12 12 12 11 10 10 10 11 11 11 12 12 12 12 12 12 12 11 11
17 16 15 14 13 13 13 12 12 11 11 10 9 10 10 10 10 10 10 11 11 11 11 11 11 12 11 11 12 12 12 13 14 13 14 15 16 16 15 16 18 19 20 18 17 17 17 17 17 17 17 17 17 17 17 16 16 17 16 16 16 15 15 14 12 11 11 11 11 10 9 9 9 10 10 10 10 11 12 12 12 12 12 12 12
17 15 14 13 12 12 12 12 11 11 10 9 9 9 9 10 10 10 10 10 10 11 11 11 11 11 12 11 11 12 12 13 13 14 14 15 15 15 16 18 20 20 19 18 16 16 17 17 17 17 17 17 16 17 16 16 16 16 17 16 16 15 14 14 12 11 11 11 10 9 8 9 9 9 9 9 10 10 11 11 12 12 12 12 12
16 15 13 12 12 11 10 10 10 9 9 8 8 8 9 9 9 10 10 10 10 11 11 10 11 11 12 12 11 12 12 12 13 14 14 15 16 16 16 19 20 19 18 17 16 17 17 17 17 17 17 16 16 16 16 16 16 16 16 17 16 14 14 13 12 11 11 10 9 9 8 7 7 8 9 9 10 11 10 10 10 11 11 11 12
16 14 12 12 12 10 10 9 9 9 8 8 8 8 9 8 9 9 10 10 11 11 11 11 11 11 12 12 11 12 13 13 13 14 14 15 16 15 17 19 19 18 17 16 17 17 17 17 16 16 16 16 16 16 15 15 15 15 15 17 17 15 13 11 10 10 11 9 8 8 7 6 6 7 7 7 9 10 9 9 9 10 10 11 11
16 14 13 13 12 11 11 10 10 9 9 9 8 8 9 9 9 9 9 10 11 11 11 11 11 11 12 13 12 12 12 12 13 14 15 15 15 15 17 18 17 16 17 17 17 17 17 16 16 15 16 16 16 16 15 15 14 14 14 15 16 15 13 9 6 8 10 9 8 7 6 5 5 5 6 5 6 7 7 7 8 8 9 9 10
16 14 14 13 12 11 10 10 10 10 10 9 9 9 8 9 9 10 9 10 11 11 11 11 12 12 12 12 12 12 12 12 13 14 15 16 15 15 17 17 17 16 16 16 16 15 16 15 14 15 15 15 15 15 15 14 15 15 14 14 14 14 12 9 6 6 8 9 8 7 6 5 5 5 5 4 4 5 6 6 7 7 7 8 9
15 14 14 13 12 10 10 10 9 9 10 9 9 9 9 9 9 10 10 10 11 12 11 11 12 12 12 12 12 12 12 12 12 13 14 16 16 16 17 17 16 15 15 15 14 14 14 14 14 14 14 14 14 14 14 15 15 15 14 14 14 13 11 8 7 7 7 8 8 7 5 5 5 5 5 4 4 5 5 5 5 5 6 7 7
13 14 13 12 12 11 10 9 9 9 9 9 9 9 9 9 9 9 9 10 11 12 12 11 12 12 13 13 13 14 13 13 13 13 14 15 16 16 17 16 16 14 14 14 13 14 14 14 13 13 13 13 13 14 14 15 14 13 14 14 13 12 10 7 7 9 9 8 7 6 6 5 5 5 5 4 5 5 5 4 3 4 4 5 6
13 13 12 11 11 11 10 9 10 9 9 9 9 9 9 9 9 9 10 10 11 12 12 12 12 12 13 14 14 14 14 14 14 14 14 15 17 17 17 16 15 14 14 14 14 14 14 14 13 13 13 14 15 15 15 15 14 14 14 13 12 12 11 8 7 9 11 10 8 7 6 6 6 6 5 5 4 4 5 4 3 3 3 3 3
12 12 12 11 11 10 10 9 9 9 10 9 9 9 9 9 9 10 10 11 11 12 13 12 12 13 14 14 15 15 15 15 15 15 14 15 17 18 17 16 15 14 14 14 16 16 16 16 15 15 16 16 16 15 16 17 16 15 14 12 12 12 11 9 8 10 13 12 9 8 7 7 7 7 6 5 5 5 5 4 4 3 3 3 3
11 11 12 11 10 10 10 10 10 9 9 9 9 9 9 9 10 10 10 11 11 12 13 13 14 14 14 14 16 16 16 16 15 15 15 16 18 18 17 15 15 14 14 17 19 18 18 17 17 17 16 17 17 17 17 17 16 15 14 13 12 12 11 9 9 12 14 13 11 10 9 8 7 7 7 6 6 6 6 5 5 4 4 4 3
11 12 12 11 11 11 11 12 11 10 10 10 10 10 10 9 10 10 10 11 12 12 13 14 15 15 15 16 17 17 17 17 16 16 16 17 18 18 16 15 14 14 16 19 19 19 18 17 17 17 17 18 17 18 18 17 17 16 15 13 12 12 11 8 11 14 15 13 12 12 10 9 8 7 7 7 7 7 7 6 6 6 6 5 4
12 11 11 11 12 12 12 12 12 11 11 11 11 11 11 10 10 11 11 12 13 13 14 15 16 16 16 16 17 18 18 18 18 18 18 18 18 17 15 15 14 15 17 19 19 18 17 17 17 17 18 17 17 17 16 17 17 16 14 11 10 10 11 9 12 14 15 15 13 12 10 10 8 8 8 8 8 8 9 8 7 7 7 7 6
12 13 12 12 12 12 12 12 12 12 12 12 13 13 12 12 12 12 12 13 14 15 16 16 17 17 17 17 18 18 19 19 19 19 19 18 18 17 16 15 15 16 17 18 18 18 18 18 18 18 18 17 17 17 16 16 15 15 13 10 9 9 10 8 12 14 16 15 13 12 10 10 9 8 9 9 10 10 10 10 9 9 9 9 8
13 15 13 12 12 13 13 12 13 13 13 13 13 13 13 13 14 15 15 15 15 16 17 17 18 18 18 19 19 18 19 20 20 20 19 19 18 17 16 16 16 17 17 17 17 18 18 18 18 18 18 18 18 18 17 17 17 16 14 13 11 9 8 9 14 15 15 14 12 11 11 10 10 10 10 11 11 12 11 12 11 11 11 10 10
13 14 13 12 13 15 14 13 15 15 14 15 15 15 15 15 16 17 16 16 16 16 17 17 18 19 19 19 19 19 20 20 20 19 19 19 17 16 17 16 17 17 17 17 17 17 17 17 16 16 16 17 17 17 16 15 15 15 14 14 12 9 5 8 13 14 14 13 11 11 12 12 12 12 12 12 13 13 13 13 13 12 12 12 12
13 13 14 15 16 16 14 15 17 17 16 16 16 16 17 17 17 17 16 17 16 17 18 18 18 18 19 20 20 20 20 20 20 19 19 19 18 17 17 17 17 17 17 17 16 16 15 14 13 13 15 16 15 14 14 13 12 11 11 12 12 9 3 7 10 13 14 12 12 12 13 13 13 13 13 14 14 14 14 14 14 14 13 13 13
13 13 14 16 17 17 16 17 18 18 17 17 17 17 17 17 17 17 17 17 17 17 18 18 18 19 20 20 21 21 20 20 20 19 19 19 19 18 18 17 17 17 17 17 16 15 15 14 13 12 12 12 11 11 10 11 11 11 11 10 10 7 4 8 11 14 14 12 12 13 14 14 14 14 14 15 15 15 15 15 15 15 14 14 13
14 14 15 16 18 18 17 17 18 18 17 18 18 17 18 18 17 17 17 18 17 18 18 18 19 19 21 21 22 22 21 21 21 21 20 19 19 18 18 17 17 17 17 17 16 15 14 14 13 14 13 10 9 9 9 10 11 8 9 9 7 4 6 10 13 14 14 13 13 14 15 15 15 15 15 16 16 16 17 17 16 15 15 14 14
15 15 16 16 18 18 17 16 17 18 17 17 18 17 18 18 18 17 18 19 18 18 18 19 20 20 21 22 22 22 22 22 22 21 20 19 18 17 17 16 16 15 14 14 13 12 12 13 13 13 13 11 10 11 9 9 10 7 8 8 5 3 5 10 14 14 14 13 14 15 16 16 16 16 16 17 17 17 18 17 17 16 16 15 14
16 16 15 16 17 17 17 16 17 18 17 17 17 18 18 19 19 18 19 20 20 20 19 19 20 20 21 21 21 21 22 22 21 20 19 18 17 16 16 15 15 14 12 12 11 10 11 13 13 11 10 11 12 13 9 6 10 11 9 8 7 7 7 11 14 14 13 14 15 16 17 18 18 18 17 18 18 18 19 18 17 17 16 15 14
16 17 15 15 17 17 17 16 16 17 18 18 18 18 19 19 20 20 20 21 21 21 21 21 21 21 20 19 19 20 21 20 19 17 16 15 15 16 15 14 13 12 12 13 13 13 13 13 12 11 8 6 6 9 8 6 5 10 9 8 11 11 9 12 16 15 14 15 17 18 19 20 19 18 19 19 20 20 19 19 18 18 17 16 15
15 16 17 16 17 17 16 15 16 18 19 19 19 19 20 20 21 21 21 21 20 20 21 21 21 21 19 18 17 19 19 18 16 15 14 13 14 14 15 13 11 11 12 12 11 11 11 10 8 8 6 4 3 3 4 5 3 5 8 8 10 9 8 12 15 15 14 15 17 17 19 20 20 20 21 21 21 21 21 20 20 20 19 18 17
14 16 17 17 17 17 16 15 17 19 19 18 19 20 21 21 20 21 22 21 20 19 19 18 18 19 18 17 17 17 16 15 14 13 13 13 13 13 13 12 10 9 9 10 8 7 7 5 4 5 5 7 6 4 2 5 4 3 6 7 8 7 7 9 12 14 12 12 13 14 16 17 18 20 21 22 22 22 22 22 22 21 21 19 18
13 15 17 18 18 18 17 15 15 18 19 18 19 19 20 21 20 21 21 21 20 18 18 17 17 17 17 16 15 15 15 14 13 12 13 12 12 12 12 11 9 7 7 8 7 6 5 3 5 7 7 7 6 5 5 6 5 3 5 5 6 5 4 4 8 12 10 10 11 12 14 15 15 17 19 20 22 23 23 23 23 22 21 20 19
14 14 17 17 17 17 18 16 15 17 18 19 18 19 20 20 20 21 20 19 18 17 16 17 18 18 18 17 15 14 14 13 12 11 11 11 11 11 10 10 8 7 6 7 6 5 5 5 9 9 9 7 7 7 5 7 5 4 7 5 5 6 4 1 5 9 8 11 13 12 14 14 14 15 16 17 19 20 22 23 23 22 22 21 20
15 16 17 16 16 16 17 17 16 17 18 18 19 20 21 20 19 19 18 16 15 15 16 18 19 18 18 17 16 14 13 12 11 10 10 10 10 9 8 8 8 7 7 7 7 6 5 6 9 9 9 9 9 8 8 8 6 5 9 3 4 8 6 2 3 5 5 10 13 12 14 13 13 13 14 14 15 17 18 20 21 22 23 23 22
17 18 18 17 17 17 18 19 18 18 18 18 18 19 20 20 20 18 16 14 12 13 16 18 18 17 17 17 16 14 12 10 10 10 10 10 9 7 7 7 7 7 7 7 7 6 5 6 8 9 10 10 10 11 13 12 7 7 8 3 4 8 7 4 2 1 3 8 10 11 13 12 11 12 12 11 13 14 16 18 20 21 23 24 23
18 20 19 17 17 17 18 17 17 17 17 17 17 18 18 19 20 18 15 12 9 10 14 15 15 16 15 16 16 13 12 12 10 10 10 9 8 7 7 8 9 8 8 7 7 7 6 7 8 8 10 11 13 13 13 10 7 7 8 6 6 7 8 6 3 1 1 6 8 8 11 11 10 12 12 11 11 13 15 16 18 20 22 24 24
19 20 19 18 18 18 17 16 17 16 16 16 16 18 17 17 18 18 15 12 9 10 12 14 15 15 15 15 15 13 13 12 11 11 10 9 8 7 7 9 10 9 8 7 7 8 8 9 9 9 11 12 12 10 7 7 6 8 8 7 6 5 6 5 3 1 1 4 6 5 7 10 11 12 12 11 12 13 14 13 16 19 21 23 25
21 20 20 20 19 20 20 18 18 17 16 15 14 16 17 17 18 18 16 13 12 11 11 12 14 14 14 14 14 13 13 13 12 11 10 9 8 7 7 9 11 9 8 7 8 9 8 9 10 10 11 10 8 7 6 7 4 10 9 6 4 4 4 5 5 3 3 4 6 4 5 9 12 13 13 13 14 14 13 12 13 17 19 22 24
23 22 22 21 18 20 21 21 21 19 18 16 15 17 18 18 18 17 16 15 15 14 12 11 12 13 13 13 13 13 13 13 12 10 9 9 8 8 8 8 9 8 7 6 7 9 8 8 8 9 10 8 6 5 6 9 8 12 9 3 3 4 5 7 6 4 5 5 5 3 4 10 12 12 14 16 16 14 12 12 12 14 18 20 23
24 23 23 21 20 20 20 21 21 21 20 18 18 18 19 19 19 19 17 15 15 15 15 12 11 12 13 12 12 12 13 12 11 10 9 8 8 8 9 8 7 6 7 7 7 9 8 8 8 9 10 7 5 5 5 10 12 11 5 2 6 6 8 9 6 5 6 5 3 2 3 9 11 11 13 16 17 15 12 13 13 15 18 20 22
25 24 23 23 23 21 19 20 21 21 21 20 20 19 18 18 19 19 17 14 13 14 14 11 9 12 12 11 11 12 12 11 11 11 9 9 9 9 9 9 7 6 6 6 7 7 8 8 8 10 9 7 6 7 8 9 9 7 4 5 7 7 10 11 8 7 8 7 4 0 3 5 8 10 11 14 15 14 13 13 14 15 18 20 21
26 25 24 24 24 22 18 19 21 21 21 21 20 19 17 17 17 16 16 15 13 13 12 10 10 11 12 11 11 11 11 10 10 10 9 9 9 8 9 8 7 5 4 5 5 6 6 6 7 8 8 8 9 8 7 9 8 6 5 6 6 6 9 8 8 8 6 8 7 1 3 4 7 9 9 11 13 13 14 14 12 12 14 16 19
26 26 25 24 23 21 19 18 21 21 21 20 18 17 17 16 15 14 15 15 12 11 11 10 10 12 12 11 11 11 10 10 9 8 7 8 7 7 8 7 7 5 4 5 6 6 6 6 7 8 8 8 9 7 6 7 8 7 4 3 2 3 3 4 6 4 4 10 9 2 2 3 6 7 7 9 11 11 13 14 12 11 11 13 15
25 25 25 24 23 21 19 19 20 21 21 19 17 18 18 17 15 14 14 14 12 12 11 10 9 12 13 12 11 11 10 10 10 9 8 8 7 7 6 6 7 6 5 6 6 6 7 7 8 7 7 7 8 8 6 4 5 8 6 3 2 1 1 0 5 4 1 8 8 4 2 1 3 5 5 6 8 8 11 13 12 11 12 13 13
25 24 24 25 24 22 19 20 22 22 22 20 19 20 20 19 18 17 16 14 13 13 12 11 10 11 13 11 11 11 10 10 10 9 8 7 6 7 6 6 6 7 7 7 7 6 7 8 8 6 6 8 9 9 7 5 6 7 4 2 2 2 5 4 9 12 7 8 11 8 6 2 2 4 4 4 5 6 9 11 10 11 12 13 13
27 25 25 25 24 23 20 21 23 23 22 21 20 20 20 20 20 20 20 17 16 14 13 12 10 11 12 11 11 11 10 10 10 9 8 7 6 6 6 6 6 8 7 6 6 6 7 8 8 6 7 7 7 7 8 7 7 7 4 3 4 5 6 5 9 13 11 9 11 9 7 6 4 3 2 2 3 4 6 9 9 10 13 14 13
26 26 26 25 24 24 21 22 22 22 22 20 19 20 19 19 20 20 20 19 18 16 14 12 10 10 11 11 11 11 10 10 9 8 7 8 7 6 6 6 7 7 5 4 4 5 5 6 6 6 6 5 5 6 8 7 6 6 5 5 4 4 4 4 6 9 9 9 7 6 6 6 4 1 0 2 4 3 3 7 8 10 13 14 14
25 25 27 25 24 24 23 23 22 20 20 18 18 19 18 18 18 19 20 19 18 16 15 13 11 10 10 10 10 10 10 9 9 7 7 7 7 6 6 6 7 6 5 5 5 4 4 4 4 6 8 7 5 7 7 7 6 6 6 5 4 3 2 4 6 6 5 5 3 3 4 4 4 3 1 3 4 3 3 6 7 9 12 13 14
25 25 26 23 22 23 23 24 22 19 19 19 18 18 18 18 18 18 18 18 16 15 15 14 12 11 11 10 10 10 9 9 9 8 8 7 7 6 6 5 6 6 6 5 4 4 2 2 3 4 8 8 7 8 8 7 6 6 6 4 2 2 2 3 4 4 4 4 3 3 3 2 4 3 3 2 3 2 3 5 6 7 10 12 13
26 26 25 22 21 23 24 24 22 19 19 19 18 18 18 18 18 17 16 16 16 16 16 15 15 13 13 12 11 11 10 9 9 8 8 8 7 7 6 6 5 5 6 4 4 4 3 2 2 2 7 9 7 8 8 7 6 6 5 4 2 2 2 2 2 2 2 3 1 4 4 1 2 2 3 1 1 1 2 4 5 7 9 11 13
26 27 26 24 22 23 24 24 22 20 19 20 19 18 17 17 17 17 16 16 17 18 17 17 16 14 13 12 11 11 10 10 9 9 8 8 7 7 7 7 7 6 7 5 4 4 4 4 2 3 6 8 7 7 8 8 8 7 5 3 3 2 1 1 2 2 1 2 1 3 4 2 1 1 1 2 2 3 4 5 5 8 10 12 13
Wind_Direction
147 143 133 125 120 120 118 116 115 115 113 114 116 115 117 120 120 118 119 118 117 114 111 109 109 110 115 118 117 116 115 115 116 117 118 118 116 112 107 104 102 103 108 108 108 109 107 105 104 104 102 100 100 101 101 100 99 98 97 94 92 90 89 86 83 79 76 75 75 76 81 82 81 81 80 80 79 78 78 79 80 79 77 76 77
146 143 133 128 125 125 123 120 120 120 117 117 118 118 120 122 123 124 122 118 116 114 111 109 108 109 113 116 118 118 117 118 118 117 118 119 117 113 110 108 106 107 112 113 112 109 106 105 104 105 104 102 102 103 103 101 99 98 96 92 90 89 89 87 85 80 75 74 74 75 81 84 82 80 79 79 79 78 78 78 78 76 77 77 77
143 140 134 132 129 127 124 122 123 123 122 123 124 125 125 126 129 129 125 119 116 114 112 111 111 110 111 114 118 119 119 120 119 118 119 120 118 114 112 111 109 110 115 116 115 109 105 105 105 106 106 105 105 106 105 103 100 98 97 95 94 92 90 90 87 82 75 72 76 75 79 85 83 80 78 78 78 77 77 76 74 74 78 80 81
142 137 137 134 132 128 124 124 125 126 127 129 129 130 130 130 130 126 122 119 117 117 116 116 118 118 117 117 120 122 122 123 121 119 119 120 119 117 114 113 112 112 116 118 117 111 106 106 108 108 107 107 107 107 106 104 101 99 98 97 96 94 93 92 87 83 77 71 75 76 79 83 82 80 79 78 76 76 73 70 67 70 79 84 89
142 137 138 135 135 128 125 127 127 128 129 132 132 132 132 128 123 119 117 116 119 123 125 125 124 125 126 125 125 126 126 126 121 119 120 121 122 121 119 117 114 114 117 119 119 113 110 110 110 110 109 109 108 108 107 104 102 100 98 93 91 92 92 88 82 80 78 75 74 76 79 80 80 80 80 79 75 72 69 66 64 66 71 78 87
140 137 136 135 134 129 130 131 129 132 131 132 133 135 134 130 125 121 120 120 125 128 132 134 133 132 132 130 130 130 128 126 122 121 122 123 124 122 121 120 116 117 120 120 120 115 113 113 112 111 111 110 109 108 106 104 102 100 96 92 91 90 88 82 80 79 77 79 76 74 75 76 79 80 77 77 75 71 68 64 64 66 67 73 81
136 135 133 134 132 130 134 132 131 134 131 130 133 134 133 134 132 129 129 130 133 133 136 138 137 138 138 136 136 134 129 126 123 123 124 124 124 122 121 121 119 120 121 120 118 115 114 114 113 112 112 112 110 107 105 104 101 96 92 91 93 92 89 85 84 79 75 77 75 74 76 77 78 79 75 74 75 73 69 63 62 67 71 74 78
136 134 133 132 131 132 136 136 136 136 132 133 134 131 132 135 137 137 137 137 138 140 142 141 139 141 142 141 139 137 133 128 125 125 124 124 124 122 121 121 120 121 120 119 117 116 116 116 115 114 114 113 111 107 106 104 99 96 94 92 90 89 88 85 79 75 76 78 76 74 77 79 78 79 76 74 75 73 69 64 61 63 71 75 75
137 132 134 134 134 138 139 141 141 142 141 144 139 131 133 138 144 145 145 146 146 146 148 145 142 145 145 145 143 140 136 131 129 128 126 126 126 122 120 121 121 121 120 118 117 118 119 117 115 114 115 114 111 109 107 104 101 98 97 93 89 89 89 82 73 72 76 77 77 74 74 76 77 79 76 73 72 71 69 64 60 59 65 71 72
134 131 136 138 139 142 143 146 145 148 149 147 141 138 144 148 152 153 154 156 155 151 152 152 150 150 148 148 149 145 138 133 133 131 129 129 127 122 120 122 122 122 120 118 116 117 120 118 116 115 116 116 113 112 110 106 102 99 98 95 91 89 86 79 74 74 73 69 69 69 71 72 73 74 71 70 69 69 67 63 61 59 61 65 68
132 135 141 143 145 147 150 153 152 152 151 149 149 151 154 155 157 158 161 160 160 158 155 158 158 154 150 151 153 147 139 136 136 132 131 131 127 125 124 124 124 123 122 119 117 118 119 118 118 118 118 117 116 115 113 111 105 101 101 98 96 93 87 79 72 69 67 63 56 56 63 67 67 71 71 70 70 69 67 66 65 62 62 64 66
137 143 145 148 148 152 155 154 153 152 150 151 153 155 157 156 156 158 161 158 159 159 159 164 162 159 154 152 151 146 142 138 136 134 133 133 131 129 128 127 125 127 125 121 119 120 120 119 119 119 119 117 116 117 115 113 108 104 103 100 99 99 96 92 73 54 55 58 49 46 52 59 63 68 73 73 76 76 71 68 66 63 63 64 66
140 146 145 146 145 150 151 149 152 150 149 150 152 155 156 155 153 152 155 156 156 156 160 165 162 162 157 148 145 144 143 140 137 136 135 136 135 133 132 129 127 129 126 123 123 123 122 121 121 121 120 118 117 116 115 113 109 106 104 99 96 94 95 97 91 56 48 53 49 43 44 53 61 67 70 67 75 81 77 68 64 63 61 62 63
140 142 141 143 142 144 142 144 148 147 149 151 154 154 155 153 149 149 151 153 153 152 154 156 160 161 155 144 140 141 143 143 140 138 138 138 138 135 133 129 126 128 127 125 126 125 124 122 122 123 121 119 118 115 115 116 112 108 101 95 92 87 84 82 82 74 58 51 47 43 42 44 50 57 59 54 59 68 75 74 69 67 62 60 59
136 138 141 144 141 137 137 140 141 143 146 147 151 149 149 147 144 146 146 147 147 150 149 150 157 157 154 148 143 144 145 145 141 140 140 138 138 137 133 128 125 127 126 123 122 123 123 123 124 124 120 118 117 114 115 118 115 107 100 98 93 82 77 68 58 60 59 51 41 39 35 32 35 39 41 40 45 54 63 71 69 64 62 60 57
132 136 137 138 134 132 135 135 137 140 140 140 144 143 144 143 141 142 142 142 143 148 150 151 154 151 151 150 145 145 145 142 140 139 138 137 138 136 130 125 126 126 121 119 119 121 122 123 123 120 115 113 113 112 114 116 114 108 102 99 90 82 79 68 42 40 45 44 37 31 27 26 30 29 29 29 34 43 45 48 47 46 46 50 51
129 131 129 130 128 128 130 130 135 140 142 140 137 137 137 138 139 139 140 139 141 147 149 152 149 145 148 149 145 143 144 142 138 136 136 137 137 133 127 126 130 126 119 116 117 117 118 118 117 113 108 108 108 107 109 111 111 105 98 91 84 80 75 63 43 35 33 32 29 25 22 20 24 24 23 20 27 34 29 24 22 30 29 24 18
123 129 130 128 126 123 124 126 130 132 134 131 128 126 124 131 135 136 137 135 140 145 148 149 143 143 145 143 143 143 144 141 136 135 136 137 135 130 128 131 130 124 118 114 114 114 114 114 112 109 106 106 105 103 103 104 103 97 95 91 84 76 72 59 33 32 28 23 22 21 20 18 20 19 17 16 21 24 16 11 11 19 16 8 357
122 133 130 125 126 122 122 124 124 124 123 123 124 121 119 126 131 135 132 129 138 142 144 145 140 143 144 140 142 143 143 138 136 136 136 135 133 130 132 133 127 121 117 113 112 113 114 113 110 108 105 104 103 102 99 98 95 92 93 90 82 72 71 51 19 27 25 20 21 19 20 20 22 17 14 16 20 21 14 15 16 17 12 4 356
126 133 128 126 127 122 122 123 122 118 118 121 123 118 118 124 126 130 128 129 139 138 136 138 138 141 140 139 139 140 139 136 136 136 134 133 131 134 136 132 126 121 116 113 113 114 113 111 110 107 105 104 101 99 96 96 93 89 88 86 83 71 68 42 17 27 21 17 20 19 23 24 24 20 20 23 28 34 28 30 27 22 19 14 12
125 129 128 126 126 121 121 123 120 116 118 121 120 117 120 126 124 126 127 128 132 129 129 132 136 136 135 136 136 137 136 134 136 135 133 132 133 137 136 129 124 121 117 115 115 113 112 110 107 104 101 99 97 95 93 93 90 88 88 89 89 72 65 32 13 22 15 15 19 19 27 30 32 32 32 35 40 44 40 39 37 34 32 28 27
122 127 128 124 125 124 123 121 116 116 119 117 115 117 123 127 126 126 126 124 124 126 129 130 131 133 134 135 134 134 134 134 135 134 133 133 135 137 132 128 125 121 118 116 114 112 111 108 104 99 95 95 94 91 90 88 82 79 82 84 80 72 63 17 7 14 12 14 19 24 33 36 41 42 41 43 45 46 45 45 43 43 41 39 35
126 129 127 124 124 125 125 121 115 115 116 113 113 114 120 124 125 126 125 124 123 125 128 128 130 133 134 134 134 133 133 134 133 133 134 134 135 133 128 128 126 121 119 115 113 112 108 107 102 95 93 96 93 85 83 85 80 71 72 75 74 84 71 2 4 13 14 19 25 33 40 42 44 45 45 47 50 50 50 50 50 50 48 47 43
129 127 125 126 127 126 126 123 117 114 112 113 115 115 118 120 123 126 125 124 123 124 127 128 131 133 134 135 134 133 133 134 133 134 135 133 130 128 126 126 124 120 117 114 112 109 104 103 100 95 97 96 90 81 77 79 78 65 64 68 72 86 53 349 9 20 22 28 35 41 45 47 46 46 48 50 53 52 53 53 52 52 49 47 43
125 126 127 130 129 128 126 123 117 113 113 115 117 119 120 119 122 125 124 124 125 127 128 131 133 134 135 136 135 132 133 133 134 134 131 127 126 126 126 123 122 119 116 114 112 107 102 100 95 92 92 92 88 78 74 75 74 70 64 64 72 73 14 12 30 29 30 35 42 48 49 49 48 49 51 51 53 53 52 50 46 43 40 36 32
129 130 131 132 131 130 128 127 121 115 116 117 117 120 120 120 124 125 124 123 125 127 128 133 135 136 136 136 137 134 133 134 133 130 126 126 127 127 125 123 122 119 116 113 109 104 101 99 92 84 77 83 89 69 70 75 66 73 75 68 72 40 6 38 45 35 35 41 47 51 51 51 51 51 52 53 53 51 47 42 36 32 29 25 20
132 133 135 135 133 134 134 134 127 121 119 117 117 121 121 121 124 126 125 124 125 126 127 132 135 137 136 135 136 135 134 135 133 130 128 128 128 127 125 123 121 118 117 113 110 107 105 101 94 86 73 76 86 79 82 79 63 77 101 94 84 24 16 49 51 41 41 47 53 54 54 53 51 53 53 53 51 46 42 35 30 26 22 19 14
136 137 139 137 135 138 139 135 129 126 124 119 118 120 121 121 122 124 124 124 125 125 126 129 132 134 134 134 134 136 136 135 134 131 130 129 127 124 122 121 118 115 113 109 106 107 105 98 91 87 79 76 88 99 111 99 65 62 86 93 73 59 54 57 54 47 46 52 57 58 57 55 52 53 53 51 48 43 39 35 30 28 24 20 15
142 141 141 139 136 138 137 133 131 133 133 128 122 118 119 122 123 125 124 122 122 122 124 127 129 130 132 134 134 136 136 135 134 130 127 125 124 121 118 116 113 111 106 99 97 98 97 94 92 93 95 83 83 106 118 130 80 46 61 67 52 54 57 62 59 52 53 60 62 61 58 54 52 51 52 50 47 44 40 38 36 33 31 27 24
146 145 143 141 138 134 132 133 135 138 140 134 127 120 118 122 123 125 125 123 124 124 125 126 127 129 132 133 133 134 134 134 132 129 126 123 123 122 116 109 104 105 101 95 94 97 99 98 104 111 120 131 149 146 106 139 167 45 64 55 44 55 54 62 63 51 53 65 65 61 56 51 51 50 50 50 47 46 43 41 40 38 37 34 31
147 146 143 142 141 135 129 131 135 139 142 136 131 127 123 123 123 126 126 124 126 127 126 127 127 127 129 129 131 130 128 129 128 128 126 120 116 114 111 105 103 108 101 99 96 99 107 104 127 137 135 134 152 183 112 127 146 71 85 59 45 66 57 56 58 48 47 60 62 57 51 48 50 48 47 49 48 48 46 43 41 40 40 38 36
147 144 144 147 147 139 129 131 135 137 139 137 135 134 130 127 125 127 127 126 128 126 124 125 126 125 125 125 128 128 125 125 124 125 124 119 113 111 113 110 114 120 107 101 94 95 104 123 154 149 144 141 149 153 133 148 143 98 123 80 40 61 57 52 55 44 40 50 58 57 53 49 50 46 45 48 48 48 48 46 44 43 43 41 39
153 145 145 150 148 138 130 132 136 135 134 135 136 135 134 131 128 126 124 129 131 125 125 126 125 126 126 126 129 131 131 130 125 123 122 120 119 119 121 120 124 126 116 113 113 115 108 128 154 147 141 148 150 136 126 157 151 125 137 91 54 86 79 100 60 35 30 49 55 56 55 51 50 48 45 45 45 47 48 47 47 47 47 45 43
154 149 148 149 143 136 133 131 132 133 131 132 133 133 136 133 128 124 121 128 131 129 132 132 131 132 134 135 136 138 136 134 128 123 123 121 122 126 127 129 129 126 127 128 128 131 115 121 143 145 145 145 137 114 100 124 122 133 150 110 83 103 84 112 85 19 13 47 48 44 50 49 47 50 48 45 44 46 47 46 46 47 49 48 46
152 151 149 146 142 140 138 132 130 135 132 128 130 134 136 132 125 120 119 127 135 141 147 144 142 143 144 142 142 141 139 141 136 131 131 125 126 132 130 127 124 128 139 135 121 121 118 119 131 141 145 133 116 102 102 114 111 130 150 131 115 108 91 130 149 356 355 39 39 31 40 42 40 45 44 45 48 48 49 47 47 47 47 48 46
153 149 146 144 144 144 141 137 135 135 133 129 129 134 138 135 129 123 125 135 148 157 159 155 152 150 149 146 148 152 152 152 146 137 136 134 137 141 141 137 129 130 140 140 123 121 130 129 127 130 133 126 117 114 114 119 129 153 154 128 133 136 125 144 186 225 326 29 41 32 33 34 34 39 38 44 51 50 49 47 49 50 47 47 46
152 147 145 145 147 148 148 148 144 139 138 137 133 135 137 136 133 129 132 140 139 142 152 156 153 150 152 154 158 162 159 157 150 143 146 150 153 154 151 143 137 135 134 135 124 122 130 130 126 126 130 132 128 123 112 109 142 163 146 116 124 139 135 155 195 186 14 42 62 47 26 26 34 39 38 45 51 48 46 45 49 50 49 49 46
148 149 148 150 154 155 156 157 155 151 148 145 142 140 135 131 131 131 136 140 134 134 142 151 153 151 155 157 158 159 158 159 153 148 151 152 152 156 153 141 139 140 130 122 116 117 126 131 128 125 128 133 129 118 88 75 142 173 146 114 128 145 141 149 151 118 75 85 77 59 22 24 38 43 41 46 49 44 41 42 49 51 50 50 48
149 152 152 155 161 160 159 161 161 158 153 152 152 147 138 136 139 140 146 151 150 152 152 158 162 155 156 158 154 154 155 156 153 151 152 148 143 143 149 143 137 137 128 120 119 119 128 135 131 127 130 131 117 98 70 67 110 162 155 134 179 165 161 162 144 129 126 102 71 72 40 31 46 52 43 45 46 40 38 44 52 55 54 54 52
154 155 156 160 162 161 162 164 164 160 156 155 155 152 147 148 151 153 159 163 159 161 164 171 171 159 161 163 158 158 157 156 155 154 154 150 146 142 148 154 146 136 126 117 118 117 120 128 129 127 125 123 101 71 75 87 107 141 151 174 190 160 151 167 166 161 155 133 99 92 42 32 52 58 43 44 46 37 38 51 59 65 63 59 55
156 157 160 163 165 167 167 165 164 163 161 155 152 153 153 155 157 158 164 167 161 164 169 173 170 162 166 169 164 162 161 162 159 158 160 157 156 152 148 154 153 141 120 109 114 111 110 122 133 129 115 104 96 82 97 108 115 132 106 110 153 145 141 157 167 167 161 158 166 123 15 27 51 57 41 43 46 36 35 49 60 67 65 59 55
159 161 164 166 171 173 172 167 162 165 165 156 150 151 152 155 158 158 162 163 158 159 162 167 170 167 169 172 170 166 164 165 164 165 166 159 161 158 146 148 153 143 118 111 116 105 104 120 134 128 109 94 84 80 107 127 133 134 108 103 118 133 145 159 168 165 174 193 205 249 26 41 57 57 42 44 46 38 35 42 51 56 56 54 52
164 166 168 170 174 176 176 170 163 164 161 152 151 154 154 156 159 160 162 161 156 155 158 167 174 169 169 173 171 169 168 165 165 167 166 161 165 160 147 148 152 146 128 122 117 106 99 112 131 126 114 103 86 80 101 122 136 144 152 150 132 162 177 195 185 182 229 215 212 232 32 42 61 57 36 43 46 39 34 34 41 40 35 41 45
166 171 174 174 176 178 175 167 164 163 155 152 161 164 161 162 166 167 166 164 159 158 162 169 175 170 170 172 170 171 168 163 165 167 168 170 167 158 150 145 145 141 132 130 120 109 106 113 129 126 116 107 91 88 82 76 130 149 170 202 206 207 335 296 148 99 125 196 194 199 206 305 28 37 17 32 42 35 27 25 35 37 28 34 40
169 173 174 173 175 177 172 163 164 162 157 162 173 173 167 166 171 170 166 168 165 159 162 169 175 174 174 174 171 173 169 164 170 171 170 174 172 166 158 146 143 135 130 135 122 111 120 127 130 128 121 107 93 96 93 83 113 128 150 188 140 82 39 65 112 93 93 175 180 177 177 184 34 23 359 11 22 11 16 21 30 34 26 27 31
173 174 172 173 175 178 173 164 165 166 165 171 177 176 173 172 174 173 170 173 170 162 163 170 174 173 175 176 174 176 172 170 176 177 172 169 175 176 164 154 148 135 127 134 129 119 127 135 139 135 126 118 108 108 107 112 119 110 104 115 96 62 48 69 104 97 94 134 161 165 159 150 117 54 11 3 348 343 6 12 14 20 18 14 18
178 177 174 176 179 179 175 168 169 172 172 176 179 180 181 179 176 175 174 175 171 166 168 174 173 173 176 174 174 179 178 177 179 182 180 174 176 178 169 166 156 139 133 140 145 138 130 134 147 147 147 147 133 118 109 114 126 115 103 113 97 65 59 68 90 103 105 117 137 150 153 162 173 189 276 286 302 313 345 348 350 4 8 4 7
179 178 178 181 182 180 176 173 176 179 176 178 180 180 184 186 181 178 176 175 174 172 174 177 174 177 179 171 174 181 180 181 183 183 186 185 183 180 173 170 165 160 156 145 146 155 144 135 140 154 173 171 140 129 119 108 118 125 127 133 115 91 81 57 74 96 118 132 136 155 161 160 166 157 132 221 261 298 315 327 339 352 356 355 0
179 179 184 186 183 181 179 177 181 182 178 179 180 178 182 188 187 183 180 178 178 177 178 179 176 178 182 179 176 178 178 182 185 186 188 192 193 189 187 177 171 175 169 150 147 165 164 131 124 154 176 170 150 148 139 117 118 134 135 134 119 110 96 47 62 78 93 121 150 191 187 128 135 112 68 191 244 302 299 311 327 338 345 349 358
179 180 188 191 185 183 181 182 186 184 180 181 181 180 182 187 189 188 188 185 181 182 182 182 181 179 181 184 179 175 182 187 188 190 191 196 197 193 194 185 182 189 183 169 150 157 158 138 125 155 174 174 166 159 151 137 127 124 119 106 87 96 90 61 47 43 66 79 159 202 202 177 148 112 64 95 266 258 257 286 306 325 337 345 356
180 182 188 192 189 186 184 185 187 185 184 184 182 182 182 185 186 187 192 190 184 184 184 184 186 183 179 185 185 181 188 193 194 195 194 202 201 193 193 188 196 206 193 186 173 165 163 157 152 151 171 183 182 170 158 148 137 129 119 78 61 54 31 81 43 13 352 348 322 202 204 201 157 159 339 338 306 242 259 271 283 319 333 340 351
Height
1551 1552 1553 1553 1555 1555 1556 1556 1557 1557 1558 1559 1559 1560 1560 1561 1561 1562 1562 1563 1563 1563 1564 1564 1564 1564 1565 1565 1566 1566 1567 1567 1568 1568 1568 1568 1569 1569 1570 1570 1569 1570 1571 1572 1573 1573 1574 1574 1575 1575 1575 1575 1575 1576 1576 1576 1577 1577 1577 1577 1577 1577 1577 1577 1577 1577 1577 1577 1577 1576 1576 1576 1576 1575 1575 1575 1575 1575 1575 1575 1575 1575 1574 1574 1574
1551 1552 1553 1554 1555 1555 1557 1556 1557 1558 1558 1559 1560 1560 1560 1561 1561 1562 1563 1563 1563 1564 1564 1564 1565 1565 1565 1566 1567 1567 1568 1568 1568 1569 1569 1569 1570 1570 1570 1571 1571 1571 1572 1573 1574 1574 1575 1575 1576 1576 1576 1576 1577 1577 1577 1578 1578 1579 1579 1579 1579 1578 1578 1578 1578 1578 1578 1578 1578 1577 1577 1577 1576 1576 1576 1576 1576 1576 1576 1576 1576 1575 1575 1575 1575
1551 1553 1554 1555 1555 1555 1556 1557 1558 1558 1559 1560 1560 1561 1561 1561 1562 1562 1563 1563 1564 1564 1565 1565 1565 1565 1566 1566 1567 1568 1568 1569 1569 1570 1569 1570 1571 1571 1571 1571 1572 1572 1573 1574 1574 1575 1576 1576 1577 1577 1577 1578 1578 1579 1579 1579 1579 1580 1580 1580 1580 1580 1580 1579 1579 1579 1579 1579 1578 1578 1578 1577 1577 1577 1577 1577 1577 1577 1577 1577 1576 1576 1576 1576 1576
1552 1553 1554 1555 1555 1556 1556 1557 1558 1558 1559 1560 1560 1560 1561 1561 1562 1562 1562 1563 1564 1564 1565 1565 1565 1566 1566 1567 1568 1569 1569 1570 1570 1570 1570 1570 1571 1572 1572 1572 1573 1573 1574 1575 1575 1576 1576 1577 1577 1578 1579 1579 1579 1580 1580 1580 1581 1581 1581 1581 1581 1581 1581 1580 1580 1580 1579 1579 1579 1579 1578 1578 1578 1578 1578 1578 1578 1578 1578 1577 1577 1576 1576 1576 1576
1553 1553 1554 1554 1555 1556 1556 1557 1558 1559 1559 1560 1560 1560 1561 1561 1561 1562 1562 1563 1564 1565 1565 1565 1566 1566 1567 1568 1569 1570 1570 1570 1570 1570 1570 1571 1572 1572 1573 1573 1574 1574 1575 1575 1576 1576 1577 1578 1578 1579 1580 1580 1581 1581 1581 1582 1582 1582 1582 1583 1582 1582 1582 1581 1581 1580 1580 1580 1580 1580 1579 1579 1579 1579 1579 1579 1579 1579 1579 1578 1578 1577 1577 1576 1576
1553 1553 1554 1554 1555 1555 1556 1557 1557 1558 1559 1559 1560 1560 1561 1561 1561 1562 1563 1563 1564 1565 1565 1566 1566 1567 1568 1569 1570 1570 1570 1571 1570 1571 1571 1572 1573 1573 1574 1574 1574 1575 1575 1576 1577 1577 1578 1579 1579 1580 1581 1581 1582 1582 1582 1583 1583 1583 1584 1584 1583 1583 1582 1582 1582 1582 1581 1581 1581 1581 1581 1580 1580 1580 1580 1580 1580 1580 1580 1579 1579 1578 1577 1577 1577
1553 1554 1554 1554 1555 1555 1556 1556 1557 1558 1558 1559 1559 1560 1560 1561 1561 1562 1563 1564 1564 1565 1565 1566 1567 1568 1569 1570 1570 1570 1571 1571 1571 1572 1572 1573 1574 1574 1575 1575 1575 1576 1576 1577 1578 1578 1579 1580 1580 1581 1582 1582 1583 1584 1584 1584 1584 1585 1585 1585 1584 1584 1584 1583 1583 1583 1582 1582 1582 1582 1582 1582 1581 1581 1581 1581 1580 1581 1580 1580 1579 1579 1578 1578 1577
1554 1554 1554 1555 1555 1555 1556 1556 1557 1557 1558 1558 1558 1559 1560 1560 1561 1562 1563 1563 1565 1565 1566 1567 1567 1568 1569 1570 1570 1571 1571 1571 1572 1573 1573 1574 1575 1575 1576 1576 1576 1577 1577 1578 1579 1579 1580 1581 1581 1582 1582 1583 1584 1585 1585 1585 1585 1586 1586 1586 1586 1586 1585 1585 1584 1584 1584 1583 1583 1583 1583 1582 1582 1582 1582 1582 1581 1581 1581 1581 1580 1579 1579 1578 1578
1555 1554 1555 1555 1555 1555 1556 1556 1557 1557 1557 1558 1558 1559 1560 1560 1561 1562 1563 1563 1564 1566 1566 1567 1568 1569 1570 1570 1571 1571 1572 1572 1573 1573 1574 1575 1576 1576 1577 1577 1577 1578 1579 1579 1580 1580 1581 1582 1583 1583 1584 1584 1585 1586 1586 1586 1587 1587 1587 1587 1587 1587 1587 1586 1585 1585 1585 1584 1584 1584 1584 1583 1583 1583 1583 1583 1582 1582 1581 1581 1581 1580 1580 1579 1578
1555 1555 1555 1555 1555 1556 1556 1557 1557 1557 1557 1558 1559 1559 1560 1561 1561 1562 1563 1564 1564 1566 1567 1567 1568 1569 1570 1571 1571 1571 1572 1573 1574 1574 1575 1576 1576 1577 1578 1578 1578 1579 1580 1580 1580 1581 1582 1583 1584 1584 1585 1585 1586 1587 1587 1587 1588 1588 1588 1588 1588 1588 1588 1587 1586 1586 1586 1585 1585 1585 1585 1585 1584 1584 1584 1584 1583 1582 1582 1582 1581 1581 1580 1580 1579
1555 1555 1555 1555 1556 1556 1557 1557 1557 1558 1558 1558 1559 1560 1560 1561 1562 1562 1563 1564 1565 1566 1567 1568 1569 1569 1570 1571 1571 1572 1573 1574 1575 1575 1576 1577 1577 1578 1579 1579 1580 1580 1581 1581 1581 1582 1583 1584 1585 1585 1586 1586 1587 1588 1588 1589 1589 1589 1589 1589 1589 1589 1589 1588 1587 1587 1587 1586 1586 1586 1586 1586 1585 1585 1585 1584 1584 1583 1583 1582 1582 1582 1581 1581 1580
1555 1555 1556 1556 1556 1557 1557 1557 1557 1558 1558 1559 1559 1560 1561 1561 1562 1563 1563 1564 1566 1567 1568 1568 1569 1570 1571 1571 1572 1573 1574 1575 1575 1576 1577 1577 1578 1579 1580 1580 1580 1581 1582 1582 1582 1583 1584 1585 1586 1586 1587 1587 1588 1589 1589 1590 1590 1590 1590 1590 1590 1590 1589 1589 1588 1587 1588 1588 1587 1587 1587 1586 1586 1586 1585 1585 1584 1584 1584 1583 1583 1582 1582 1581 1581
1555 1556 1556 1557 1557 1557 1557 1557 1558 1558 1559 1559 1560 1560 1561 1562 1563 1563 1564 1565 1566 1567 1568 1569 1570 1570 1571 1573 1574 1575 1576 1576 1577 1577 1577 1578 1579 1580 1580 1581 1582 1582 1583 1583 1583 1584 1585 1586 1587 1588 1588 1588 1589 1590 1591 1591 1591 1591 1591 1591 1591 1590 1590 1590 1590 1589 1589 1589 1588 1588 1588 1587 1587 1586 1586 1585 1585 1584 1584 1584 1583 1582 1582 1582 1582
1555 1556 1556 1557 1557 1558 1558 1558 1558 1559 1559 1560 1560 1560 1561 1562 1562 1563 1564 1565 1566 1567 1568 1569 1570 1571 1572 1574 1575 1576 1577 1577 1578 1578 1578 1579 1580 1581 1582 1582 1583 1583 1584 1584 1584 1585 1586 1587 1588 1589 1589 1589 1590 1591 1591 1592 1592 1592 1592 1592 1591 1591 1591 1591 1591 1590 1590 1590 1589 1589 1588 1588 1587 1586 1586 1586 1585 1585 1584 1584 1583 1583 1582 1582 1582
1556 1556 1557 1557 1558 1558 1558 1558 1559 1559 1559 1560 1560 1560 1561 1562 1562 1563 1564 1565 1566 1567 1568 1569 1570 1571 1572 1573 1575 1576 1577 1578 1579 1579 1580 1581 1581 1582 1583 1583 1584 1584 1584 1585 1585 1586 1587 1588 1589 1590 1590 1590 1591 1592 1592 1593 1593 1593 1593 1592 1592 1592 1592 1591 1591 1591 1591 1591 1590 1590 1589 1588 1588 1587 1587 1586 1586 1585 1585 1584 1584 1583 1583 1583 1582
1556 1557 1557 1558 1558 1558 1558 1558 1559 1559 1559 1560 1560 1561 1561 1561 1562 1563 1564 1565 1566 1567 1568 1569 1570 1572 1572 1573 1575 1576 1577 1578 1579 1579 1581 1581 1582 1583 1584 1584 1585 1585 1586 1586 1586 1587 1588 1589 1590 1591 1591 1591 1592 1592 1593 1593 1593 1594 1594 1593 1593 1593 1593 1592 1592 1592 1592 1592 1591 1590 1590 1589 1588 1587 1587 1587 1586 1585 1585 1584 1584 1583 1583 1583 1582
1557 1557 1558 1558 1558 1558 1558 1558 1559 1559 1559 1559 1560 1560 1561 1561 1562 1563 1564 1565 1566 1567 1568 1570 1571 1572 1573 1573 1575 1576 1577 1578 1579 1580 1581 1582 1583 1584 1585 1586 1586 1587 1587 1587 1587 1588 1589 1590 1591 1592 1592 1592 1593 1593 1594 1594 1594 1594 1594 1594 1594 1594 1594 1593 1593 1593 1592 1592 1591 1591 1590 1589 1589 1588 1587 1587 1586 1586 1585 1584 1584 1584 1583 1583 1582
1558 1558 1558 1558 1558 1558 1558 1558 1559 1559 1559 1559 1560 1561 1561 1562 1562 1563 1564 1566 1567 1568 1568 1570 1572 1572 1573 1575 1576 1576 1577 1579 1580 1581 1582 1583 1584 1585 1586 1587 1587 1588 1588 1588 1588 1589 1590 1591 1592 1593 1593 1593 1594 1594 1595 1595 1595 1595 1595 1595 1595 1595 1594 1594 1594 1594 1593 1593 1592 1591 1590 1590 1589 1588 1588 1587 1587 1586 1585 1584 1584 1584 1584 1583 1582
1558 1558 1558 1559 1559 1559 1559 1559 1559 1559 1560 1560 1560 1561 1562 1562 1563 1564 1565 1566 1567 1568 1569 1570 1572 1573 1574 1575 1576 1577 1578 1579 1580 1582 1582 1584 1585 1586 1587 1588 1589 1589 1589 1589 1590 1591 1592 1592 1593 1594 1594 1595 1595 1595 1596 1596 1596 1596 1596 1596 1596 1595 1595 1595 1594 1594 1594 1594 1593 1592 1591 1590 1590 1589 1589 1588 1587 1586 1585 1585 1584 1584 1584 1583 1582
1558 1559 1559 1560 1559 1559 1559 1560 1560 1560 1560 1560 1561 1561 1562 1563 1563 1564 1566 1567 1568 1569 1570 1572 1573 1573 1575 1576 1577 1578 1579 1580 1581 1582 1584 1585 1586 1587 1588 1589 1590 1590 1590 1591 1592 1592 1593 1594 1595 1595 1595 1596 1596 1597 1597 1597 1597 1597 1597 1597 1597 1596 1596 1595 1596 1596 1595 1594 1593 1592 1592 1591 1590 1590 1589 1589 1588 1587 1586 1585 1585 1585 1584 1583 1583
1559 1559 1560 1560 1560 1560 1560 1560 1561 1561 1561 1561 1561 1561 1562 1563 1564 1565 1567 1568 1569 1570 1571 1572 1573 1574 1576 1577 1577 1579 1579 1581 1582 1584 1585 1586 1588 1588 1589 1590 1591 1591 1592 1592 1593 1594 1595 1595 1596 1596 1597 1597 1597 1598 1598 1598 1599 1599 1599 1598 1598 1597 1597 1597 1597 1597 1596 1595 1594 1593 1592 1591 1591 1591 1590 1590 1589 1588 1587 1586 1586 1585 1585 1584 1583
1559 1560 1560 1561 1561 1561 1561 1561 1562 1562 1562 1562 1562 1562 1563 1564 1565 1566 1567 1568 1570 1571 1572 1573 1574 1575 1577 1577 1578 1579 1580 1582 1583 1585 1586 1587 1589 1590 1591 1591 1592 1593 1593 1594 1595 1595 1596 1597 1597 1598 1598 1598 1598 1599 1599 1599 1600 1600 1600 1600 1599 1599 1598 1598 1598 1598 1597 1596 1595 1594 1593 1592 1592 1592 1591 1590 1589 1589 1588 1587 1586 1586 1585 1584 1584
1559 1560 1560 1561 1562 1562 1562 1562 1563 1563 1563 1563 1563 1563 1564 1565 1566 1567 1568 1569 1571 1572 1573 1574 1575 1577 1578 1579 1580 1581 1582 1583 1585 1587 1588 1589 1590 1591 1592 1592 1593 1594 1595 1595 1596 1597 1597 1598 1598 1599 1599 1599 1599 1600 1600 1600 1600 1601 1601 1601 1600 1600 1599 1599 1599 1599 1598 1597 1596 1595 1594 1594 1593 1593 1592 1591 1591 1590 1589 1588 1587 1587 1586 1585 1584
1560 1560 1561 1561 1562 1563 1563 1564 1564 1564 1564 1564 1564 1565 1565 1566 1567 1568 1569 1570 1572 1573 1574 1575 1577 1578 1579 1580 1581 1582 1584 1585 1586 1588 1589 1590 1591 1592 1593 1593 1594 1595 1596 1597 1597 1598 1598 1599 1599 1600 1600 1600 1600 1601 1601 1601 1601 1601 1602 1602 1602 1601 1601 1601 1601 1600 1599 1598 1597 1596 1595 1595 1594 1594 1593 1592 1592 1591 1590 1589 1588 1587 1587 1586 1585
1560 1561 1562 1562 1563 1564 1565 1565 1566 1566 1566 1566 1566 1566 1567 1568 1568 1569 1571 1572 1573 1574 1575 1577 1578 1579 1580 1581 1583 1584 1585 1586 1588 1589 1590 1591 1592 1593 1593 1594 1595 1596 1597 1598 1598 1599 1599 1600 1600 1601 1601 1601 1601 1601 1602 1602 1602 1602 1602 1602 1602 1602 1603 1602 1601 1600 1600 1599 1598 1598 1597 1596 1595 1595 1594 1593 1593 1592 1591 1590 1589 1588 1587 1586 1585
1561 1562 1563 1563 1564 1566 1566 1566 1567 1567 1567 1567 1567 1567 1568 1569 1570 1571 1572 1573 1574 1575 1577 1578 1579 1580 1581 1582 1584 1585 1586 1588 1589 1590 1591 1592 1593 1594 1594 1595 1596 1597 1598 1598 1599 1600 1600 1600 1601 1601 1601 1602 1601 1601 1602 1602 1602 1602 1603 1604 1604 1603 1603 1603 1602 1601 1601 1600 1599 1599 1598 1597 1597 1596 1595 1594 1594 1593 1592 1591 1590 1589 1588 1587 1585
1562 1562 1563 1564 1565 1566 1567 1568 1568 1569 1569 1569 1569 1569 1569 1570 1572 1573 1574 1574 1575 1577 1578 1579 1580 1581 1583 1584 1585 1586 1587 1588 1589 1591 1592 1593 1594 1594 1595 1596 1597 1598 1599 1599 1600 1601 1601 1601 1601 1602 1602 1602 1602 1601 1602 1603 1603 1604 1604 1605 1605 1604 1603 1603 1603 1602 1602 1601 1601 1600 1599 1599 1598 1597 1596 1595 1594 1594 1592 1591 1590 1589 1588 1587 1586
1562 1563 1564 1564 1566 1567 1568 1569 1569 1570 1570 1570 1570 1570 1571 1572 1573 1574 1575 1576 1577 1578 1579 1580 1581 1582 1584 1585 1586 1588 1589 1589 1590 1592 1593 1593 1594 1595 1596 1597 1598 1599 1600 1600 1601 1601 1602 1602 1602 1602 1602 1603 1603 1602 1603 1604 1605 1606 1605 1605 1605 1605 1604 1604 1603 1603 1603 1603 1602 1602 1601 1600 1599 1598 1597 1596 1595 1594 1593 1592 1591 1590 1589 1588 1586
1563 1563 1564 1565 1566 1567 1569 1570 1570 1571 1571 1572 1572 1572 1573 1573 1574 1576 1577 1577 1578 1579 1580 1582 1583 1584 1585 1587 1588 1589 1590 1591 1592 1593 1594 1595 1595 1596 1597 1598 1599 1600 1601 1601 1601 1602 1602 1603 1603 1603 1603 1604 1604 1604 1605 1606 1606 1606 1606 1606 1606 1606 1605 1604 1604 1605 1605 1604 1603 1603 1602 1601 1600 1599 1598 1597 1596 1595 1594 1593 1592 1591 1589 1588 1587
1563 1564 1564 1565 1566 1568 1569 1571 1571 1572 1573 1573 1574 1574 1575 1575 1576 1577 1578 1579 1580 1581 1582 1583 1584 1585 1587 1588 1589 1590 1591 1592 1593 1594 1595 1596 1597 1597 1598 1599 1600 1601 1601 1601 1602 1602 1603 1603 1603 1603 1603 1604 1604 1605 1606 1606 1607 1607 1607 1606 1606 1606 1606 1605 1606 1606 1606 1605 1605 1604 1603 1602 1602 1601 1599 1598 1597 1596 1595 1594 1593 1591 1590 1589 1588
1564 1565 1565 1566 1567 1568 1570 1571 1572 1573 1573 1574 1575 1576 1576 1577 1578 1579 1580 1580 1582 1583 1584 1585 1586 1587 1588 1589 1590 1591 1592 1593 1594 1595 1596 1597 1598 1598 1599 1599 1600 1602 1602 1602 1602 1603 1603 1603 1603 1603 1604 1604 1605 1605 1606 1607 1607 1607 1607 1607 1607 1607 1607 1606 1606 1607 1607 1607 1606 1605 1604 1604 1603 1602 1601 1600 1599 1598 1597 1596 1594 1593 1592 1590 1589
1564 1565 1566 1567 1568 1569 1570 1571 1572 1573 1575 1575 1576 1577 1578 1579 1579 1580 1581 1582 1583 1585 1586 1587 1588 1589 1590 1591 1592 1593 1593 1595 1596 1597 1597 1598 1599 1599 1600 1600 1601 1602 1602 1602 1603 1603 1604 1604 1604 1604 1604 1604 1605 1605 1606 1607 1608 1608 1607 1608 1608 1608 1607 1607 1606 1607 1608 1607 1607 1606 1605 1605 1604 1604 1603 1602 1601 1600 1599 1597 1596 1595 1593 1592 1590
1564 1566 1567 1567 1568 1569 1571 1572 1573 1574 1575 1576 1577 1578 1579 1580 1581 1581 1582 1583 1585 1586 1587 1588 1589 1590 1591 1592 1593 1594 1595 1596 1597 1598 1599 1599 1600 1600 1601 1601 1602 1602 1603 1603 1603 1604 1604 1604 1605 1604 1605 1605 1605 1605 1606 1607 1608 1608 1608 1608 1609 1608 1608 1608 1607 1607 1609 1609 1608 1607 1606 1606 1605 1605 1604 1604 1603 1601 1600 1599 1598 1596 1595 1594 1592
1564 1566 1567 1568 1569 1570 1571 1572 1574 1575 1576 1577 1578 1579 1580 1581 1582 1583 1584 1585 1586 1587 1588 1589 1590 1591 1592 1593 1594 1595 1596 1597 1598 1599 1599 1600 1600 1601 1601 1602 1602 1603 1603 1604 1604 1605 1605 1605 1605 1605 1605 1605 1605 1605 1606 1607 1608 1609 1609 1609 1609 1609 1609 1608 1608 1609 1609 1609 1608 1608 1607 1607 1606 1606 1605 1605 1604 1603 1602 1601 1599 1598 1597 1595 1594
1565 1566 1567 1568 1569 1570 1572 1573 1574 1576 1577 1578 1579 1580 1581 1582 1583 1584 1585 1586 1587 1588 1589 1590 1591 1592 1593 1593 1594 1595 1596 1597 1598 1599 1600 1600 1601 1601 1602 1602 1603 1603 1604 1605 1605 1605 1605 1606 1606 1606 1606 1606 1606 1606 1606 1607 1609 1609 1609 1609 1609 1609 1609 1609 1609 1609 1609 1609 1609 1608 1608 1607 1607 1607 1606 1605 1605 1604 1603 1602 1601 1600 1598 1597 1596
1566 1567 1567 1569 1570 1571 1572 1574 1575 1577 1578 1579 1580 1581 1581 1582 1584 1585 1586 1587 1588 1589 1590 1590 1591 1592 1593 1594 1595 1596 1597 1598 1599 1599 1600 1600 1601 1602 1602 1603 1604 1604 1605 1605 1605 1605 1606 1606 1606 1606 1607 1606 1606 1606 1607 1607 1608 1609 1610 1610 1609 1609 1609 1610 1610 1610 1610 1610 1609 1608 1608 1608 1608 1607 1607 1606 1605 1605 1604 1603 1602 1601 1600 1598 1597
1566 1567 1568 1569 1571 1572 1573 1574 1575 1576 1578 1579 1580 1581 1582 1583 1584 1585 1587 1588 1589 1590 1590 1591 1592 1593 1594 1595 1596 1597 1598 1599 1599 1600 1600 1601 1602 1603 1603 1604 1605 1605 1606 1606 1606 1606 1606 1606 1607 1607 1607 1607 1607 1607 1607 1607 1608 1609 1610 1610 1610 1609 1610 1610 1610 1610 1610 1610 1610 1609 1608 1609 1609 1608 1607 1607 1606 1606 1605 1605 1604 1602 1601 1600 1598
1567 1568 1569 1570 1572 1573 1574 1574 1575 1576 1578 1579 1581 1582 1583 1584 1585 1586 1588 1589 1590 1590 1591 1592 1592 1593 1594 1595 1596 1597 1599 1599 1600 1601 1601 1602 1602 1603 1604 1605 1605 1606 1606 1607 1606 1606 1607 1607 1607 1607 1608 1608 1608 1607 1608 1607 1608 1609 1610 1610 1610 1610 1610 1610 1610 1611 1611 1610 1610 1609 1609 1610 1610 1609 1608 1608 1607 1606 1606 1605 1605 1604 1603 1601 1600
1568 1569 1570 1571 1572 1574 1574 1575 1576 1577 1578 1579 1581 1583 1583 1584 1586 1587 1588 1589 1590 1591 1592 1592 1593 1594 1595 1596 1597 1598 1599 1600 1600 1601 1602 1602 1603 1604 1605 1605 1606 1607 1607 1607 1607 1607 1607 1607 1608 1608 1608 1608 1608 1608 1608 1607 1607 1609 1610 1610 1610 1610 1610 1611 1611 1611 1611 1611 1610 1610 1610 1611 1610 1610 1609 1608 1607 1607 1607 1606 1605 1605 1604 1602 1601
1568 1570 1571 1572 1572 1574 1575 1575 1577 1578 1579 1580 1581 1583 1584 1585 1586 1587 1589 1590 1591 1592 1593 1593 1594 1595 1596 1596 1598 1598 1599 1600 1601 1602 1602 1603 1604 1604 1605 1606 1606 1607 1607 1607 1607 1607 1607 1608 1608 1608 1608 1608 1608 1608 1608 1608 1608 1610 1610 1610 1610 1610 1610 1611 1611 1611 1612 1612 1611 1611 1611 1612 1611 1611 1610 1609 1608 1608 1608 1607 1606 1605 1605 1604 1602
1568 1570 1571 1572 1572 1573 1575 1576 1577 1578 1579 1580 1582 1583 1584 1585 1586 1588 1589 1590 1591 1592 1593 1594 1594 1595 1596 1597 1598 1599 1600 1601 1601 1602 1603 1603 1604 1604 1605 1606 1607 1607 1607 1607 1607 1608 1608 1608 1609 1608 1609 1608 1608 1608 1608 1609 1609 1610 1610 1610 1610 1611 1611 1611 1611 1611 1612 1612 1612 1611 1612 1612 1612 1611 1611 1610 1609 1608 1608 1608 1607 1606 1606 1605 1603
1567 1569 1570 1571 1572 1573 1574 1575 1577 1578 1580 1581 1582 1583 1585 1586 1587 1588 1589 1591 1591 1592 1593 1594 1595 1595 1597 1598 1598 1599 1600 1601 1602 1602 1603 1604 1604 1605 1606 1606 1607 1607 1608 1608 1608 1608 1608 1609 1609 1609 1609 1609 1609 1609 1609 1610 1610 1610 1610 1610 1611 1611 1612 1612 1612 1611 1612 1613 1613 1612 1613 1613 1612 1612 1611 1611 1609 1609 1609 1608 1608 1608 1607 1606 1605
1566 1568 1570 1571 1572 1573 1574 1576 1577 1578 1580 1581 1582 1584 1585 1586 1587 1588 1589 1591 1591 1593 1594 1594 1595 1596 1597 1598 1599 1600 1601 1601 1602 1603 1604 1604 1605 1605 1606 1607 1607 1607 1608 1608 1608 1608 1609 1609 1609 1609 1609 1609 1609 1609 1610 1610 1610 1610 1611 1611 1611 1612 1612 1612 1612 1612 1612 1613 1613 1612 1613 1613 1612 1612 1612 1611 1610 1610 1610 1609 1609 1608 1607 1606 1605
1566 1567 1569 1570 1571 1572 1574 1575 1577 1579 1580 1582 1583 1584 1585 1586 1588 1589 1589 1590 1592 1593 1594 1594 1595 1596 1597 1598 1599 1600 1601 1602 1602 1603 1604 1604 1605 1606 1606 1607 1607 1608 1608 1609 1609 1609 1609 1609 1610 1610 1610 1610 1609 1609 1610 1610 1610 1611 1611 1611 1612 1612 1612 1612 1612 1612 1611 1612 1613 1612 1612 1613 1613 1613 1612 1612 1611 1611 1611 1610 1609 1609 1608 1607 1606
1565 1566 1568 1569 1571 1572 1573 1575 1576 1578 1580 1581 1583 1583 1585 1586 1588 1589 1590 1591 1592 1593 1594 1594 1595 1596 1597 1598 1599 1600 1601 1602 1603 1603 1604 1605 1605 1606 1606 1607 1608 1608 1608 1609 1609 1609 1609 1609 1610 1610 1610 1610 1609 1609 1609 1610 1611 1612 1611 1611 1612 1612 1611 1612 1612 1612 1611 1612 1613 1612 1612 1613 1613 1613 1613 1612 1612 1612 1612 1611 1610 1610 1609 1608 1607
1564 1565 1567 1568 1570 1571 1573 1574 1576 1578 1579 1581 1582 1583 1585 1586 1588 1589 1590 1590 1591 1593 1593 1594 1595 1596 1597 1598 1599 1599 1600 1602 1602 1603 1604 1605 1605 1606 1606 1607 1608 1608 1609 1609 1609 1609 1609 1609 1610 1610 1610 1610 1610 1610 1610 1610 1611 1611 1612 1611 1612 1612 1611 1612 1611 1611 1612 1612 1613 1613 1613 1614 1614 1613 1613 1612 1612 1612 1612 1611 1611 1611 1609 1608 1607
1563 1565 1566 1568 1569 1571 1572 1574 1575 1577 1579 1580 1582 1583 1584 1586 1588 1589 1590 1591 1591 1593 1594 1594 1595 1596 1597 1598 1599 1599 1600 1601 1602 1603 1604 1604 1605 1606 1607 1607 1608 1608 1609 1609 1610 1610 1610 1610 1610 1610 1611 1611 1610 1610 1610 1611 1611 1611 1611 1611 1612 1612 1612 1612 1612 1611 1612 1612 1613 1613 1613 1614 1614 1613 1613 1612 1613 1612 1612 1612 1612 1611 1610 1609 1608
1563 1564 1565 1567 1568 1570 1572 1573 1575 1576 1578 1580 1581 1583 1584 1586 1587 1589 1590 1591 1592 1593 1594 1595 1596 1596 1597 1598 1599 1599 1600 1601 1602 1603 1604 1604 1605 1606 1607 1607 1608 1608 1608 1609 1610 1610 1610 1610 1610 1611 1611 1611 1611 1611 1611 1611 1611 1611 1611 1612 1612 1612 1612 1612 1612 1612 1612 1612 1613 1613 1613 1614 1613 1614 1614 1613 1613 1612 1612 1612 1611 1611 1610 1609 1608
1563 1564 1564 1566 1568 1569 1571 1573 1574 1576 1578 1579 1581 1582 1584 1585 1587 1588 1590 1591 1592 1593 1594 1595 1595 1596 1597 1598 1598 1599 1600 1601 1602 1603 1604 1604 1605 1606 1606 1607 1608 1608 1608 1609 1610 1610 1610 1610 1610 1611 1611 1611 1611 1611 1611 1611 1611 1612 1612 1612 1612 1613 1613 1613 1613 1613 1613 1613 1613 1613 1613 1614 1614 1614 1614 1614 1613 1612 1612 1611 1611 1611 1610 1609 1608
1562 1564 1564 1565 1567 1569 1570 1572 1574 1576 1577 1579 1580 1582 1583 1585 1587 1588 1589 1590 1592 1592 1593 1594 1595 1596 1597 1598 1598 1599 1600 1601 1601 1602 1603 1604 1605 1606 1606 1607 1607 1608 1608 1609 1609 1610 1610 1610 1610 1611 1611 1611 1611 1612 1612 1612 1612 1612 1613 1613 1613 1613 1613 1613 1613 1614 1614 1614 1613 1613 1613 1613 1614 1614 1614 1614 1613 1613 1612 1612 1611 1611 1611 1610 1609
1562 1563 1563 1565 1566 1568 1569 1571 1573 1575 1577 1578 1580 1581 1583 1584 1586 1587 1588 1589 1591 1592 1592 1593 1594 1595 1596 1597 1598 1599 1599 1600 1601 1602 1603 1604 1604 1605 1606 1606 1607 1607 1608 1608 1609 1610 1610 1610 1610 1611 1611 1611 1612 1612 1612 1613 1612 1612 1613 1613 1613 1613 1614 1614 1614 1614 1614 1614 1613 1613 1613 1613 1614 1614 1614 1613 1613 1613 1613 1612 1612 1611 1611 1610 1609